Time,TemperatureF,DewpointF,PressureIn,WindDirection,WindDirectionDegrees,WindSpeedMPH,WindSpeedGustMPH,Humidity,HourlyPrecipIn,Conditions,Clouds,dailyrainin,SoftwareType,DateUTC
2015-07-04 00:00:00,67.6,67.0,29.88,WNW,289,5.8,5.8,98,0.31,RA,,3.02,WeatherDisplay:10.37,2015-07-04 04:00:00,
2015-07-04 00:05:00,67.7,67.1,29.88,WSW,257,2.0,7.0,98,0.00,RA,,0.00,WeatherDisplay:10.37,2015-07-04 04:05:00,
2015-07-04 00:10:00,67.7,67.1,29.88,WSW,257,8.1,8.1,98,0.08,RA,,0.00,WeatherDisplay:10.37,2015-07-04 04:10:00,
2015-07-04 00:15:00,67.7,67.1,29.89,WSW,247,3.5,3.5,98,0.06,,,0.00,WeatherDisplay:10.37,2015-07-04 04:15:00,
2015-07-04 00:20:00,67.7,67.1,29.89,West,267,1.0,6.0,98,0.01,RA,,0.03,WeatherDisplay:10.37,2015-07-04 04:20:00,
2015-07-04 00:25:00,67.4,66.6,29.89,West,272,5.0,8.0,97,0.00,RA,,0.05,WeatherDisplay:10.37,2015-07-04 04:25:00,
2015-07-04 00:30:00,66.9,66.0,29.88,WNW,292,6.9,6.9,97,0.08,RA,,0.06,WeatherDisplay:10.37,2015-07-04 04:30:00,
2015-07-04 00:35:00,66.7,65.8,29.89,WNW,282,1.0,5.0,97,0.00,RA,,0.07,WeatherDisplay:10.37,2015-07-04 04:35:00,
2015-07-04 00:40:00,66.5,65.6,29.89,NW,312,10.4,10.4,97,0.10,RA,,0.08,WeatherDisplay:10.37,2015-07-04 04:40:00,
2015-07-04 00:45:00,66.2,65.3,29.89,West,263,3.0,8.0,97,0.00,RA,,0.09,WeatherDisplay:10.37,2015-07-04 04:45:00,
2015-07-04 00:50:00,66.0,65.1,29.89,West,266,1.0,6.0,97,0.00,RA,,0.10,WeatherDisplay:10.37,2015-07-04 04:50:00,
2015-07-04 00:55:00,65.7,64.8,29.89,WSW,248,3.5,3.5,97,0.12,RA,,0.11,WeatherDisplay:10.37,2015-07-04 04:55:00,
2015-07-04 01:00:00,65.6,64.7,29.89,West,264,0.0,4.0,97,0.00,RA,,0.12,WeatherDisplay:10.37,2015-07-04 05:00:00,
2015-07-04 01:05:00,65.5,64.6,29.89,West,272,1.0,3.0,97,0.00,RA,,0.12,WeatherDisplay:10.37,2015-07-04 05:05:00,
2015-07-04 01:10:00,65.4,64.5,29.89,WSW,246,2.3,2.3,97,0.19,RA,,0.22,WeatherDisplay:10.37,2015-07-04 05:10:00,
2015-07-04 01:15:00,65.1,64.2,29.89,West,261,2.0,6.0,97,0.00,RA,,0.29,WeatherDisplay:10.37,2015-07-04 05:15:00,
2015-07-04 01:20:00,64.9,64.0,29.89,WSW,255,1.0,6.0,97,0.00,RA,,0.31,WeatherDisplay:10.37,2015-07-04 05:20:00,
2015-07-04 01:25:00,64.9,64.3,29.89,West,263,1.2,1.2,98,0.26,RA,,0.31,WeatherDisplay:10.37,2015-07-04 05:25:00,
2015-07-04 01:30:00,64.8,64.2,29.89,West,278,1.0,1.0,98,0.26,RA,,0.32,WeatherDisplay:10.37,2015-07-04 05:30:00,
2015-07-04 01:35:00,64.9,64.3,29.89,West,279,0.0,0.0,98,0.26,RA,,0.34,WeatherDisplay:10.37,2015-07-04 05:35:00,
2015-07-04 01:40:00,64.9,64.3,29.89,West,275,0.0,0.0,98,0.30,RA,,0.40,WeatherDisplay:10.37,2015-07-04 05:40:00,
2015-07-04 01:45:00,64.8,64.2,29.89,West,269,1.0,3.0,98,0.01,RA,,0.47,WeatherDisplay:10.37,2015-07-04 05:45:00,
2015-07-04 01:50:00,64.8,64.2,29.88,WNW,288,0.0,0.0,98,0.43,RA,,0.54,WeatherDisplay:10.37,2015-07-04 05:50:00,
2015-07-04 01:55:00,64.9,64.3,29.89,WNW,288,0.0,0.0,98,0.48,RA,,0.60,WeatherDisplay:10.37,2015-07-04 05:55:00,
2015-07-04 02:00:00,64.9,64.3,29.88,WNW,288,0.0,0.0,98,0.02,RA,,0.72,WeatherDisplay:10.37,2015-07-04 06:00:00,
2015-07-04 02:05:00,64.8,64.2,29.88,NW,316,0.0,0.0,98,0.68,RA,,0.81,WeatherDisplay:10.37,2015-07-04 06:05:00,
2015-07-04 02:10:00,64.9,64.3,29.88,NW,307,0.0,10.0,98,0.01,RA,,0.82,WeatherDisplay:10.37,2015-07-04 06:10:00,
2015-07-04 02:15:00,64.9,64.3,29.88,NW,315,0.0,0.0,98,0.01,RA,,0.86,WeatherDisplay:10.37,2015-07-04 06:15:00,
2015-07-04 02:20:00,65.1,64.8,29.88,WNW,282,0.0,0.0,99,0.60,RA,,0.91,WeatherDisplay:10.37,2015-07-04 06:20:00,
2015-07-04 02:25:00,65.2,64.9,29.88,West,281,0.0,0.0,99,0.00,RA,,0.92,WeatherDisplay:10.37,2015-07-04 06:25:00,
2015-07-04 02:30:00,65.3,65.0,29.87,WNW,283,0.0,4.0,99,0.00,RA,,0.92,WeatherDisplay:10.37,2015-07-04 06:30:00,
2015-07-04 02:35:00,65.6,65.3,29.87,West,279,12.7,12.7,99,0.59,,,0.92,WeatherDisplay:10.37,2015-07-04 06:35:00,
2015-07-04 02:40:00,65.7,65.4,29.87,WSW,251,2.0,6.0,99,0.00,,,0.92,WeatherDisplay:10.37,2015-07-04 06:40:00,
2015-07-04 02:45:00,65.8,65.2,29.87,WSW,250,3.5,3.5,98,0.49,RA,,0.95,WeatherDisplay:10.37,2015-07-04 06:45:00,
2015-07-04 02:50:00,65.8,65.2,29.87,WSW,255,8.1,8.1,98,0.43,RA,,0.96,WeatherDisplay:10.37,2015-07-04 06:50:00,
2015-07-04 02:55:00,65.8,65.2,29.86,WSW,244,5.0,9.0,98,0.00,RA,,0.96,WeatherDisplay:10.37,2015-07-04 06:55:00,
2015-07-04 03:00:00,65.9,65.3,29.87,WSW,247,5.8,5.8,98,0.27,RA,,0.97,WeatherDisplay:10.37,2015-07-04 07:00:00,
2015-07-04 03:05:00,65.9,65.3,29.87,WSW,255,8.1,8.1,98,0.18,RA,,0.98,WeatherDisplay:10.37,2015-07-04 07:05:00,
2015-07-04 03:10:00,65.9,65.3,29.87,WSW,258,2.0,10.0,98,0.00,RA,,0.98,WeatherDisplay:10.37,2015-07-04 07:10:00,
2015-07-04 03:15:00,66.0,65.4,29.87,WSW,238,9.2,9.2,98,0.13,,,0.98,WeatherDisplay:10.37,2015-07-04 07:15:00,
2015-07-04 03:20:00,66.0,65.4,29.87,West,278,12.7,12.7,98,0.08,RA,,0.99,WeatherDisplay:10.37,2015-07-04 07:20:00,
2015-07-04 03:25:00,66.1,65.2,29.87,WSW,246,5.0,12.0,97,0.00,RA,,0.99,WeatherDisplay:10.37,2015-07-04 07:25:00,
2015-07-04 03:30:00,66.2,65.3,29.87,WSW,252,10.4,10.4,97,0.07,,,0.99,WeatherDisplay:10.37,2015-07-04 07:30:00,
2015-07-04 03:35:00,66.2,65.3,29.87,WSW,252,2.0,12.0,97,0.00,,,0.99,WeatherDisplay:10.37,2015-07-04 07:35:00,
2015-07-04 03:40:00,66.2,65.3,29.87,West,260,2.0,10.0,97,0.00,,,0.99,WeatherDisplay:10.37,2015-07-04 07:40:00,
2015-07-04 03:45:00,66.2,65.3,29.87,WSW,258,3.0,8.0,97,0.00,,,0.99,WeatherDisplay:10.37,2015-07-04 07:45:00,
2015-07-04 03:50:00,66.2,65.3,29.87,WSW,257,1.2,1.2,97,0.03,,,0.99,WeatherDisplay:10.37,2015-07-04 07:50:00,
2015-07-04 03:55:00,66.2,65.3,29.87,West,265,5.8,5.8,97,0.03,,,0.99,WeatherDisplay:10.37,2015-07-04 07:55:00,
2015-07-04 04:00:00,66.2,65.3,29.88,WSW,238,5.0,5.0,97,0.02,,,0.99,WeatherDisplay:10.37,2015-07-04 08:00:00,
2015-07-04 04:05:00,66.2,65.3,29.88,WSW,249,3.0,8.0,97,0.00,,,0.99,WeatherDisplay:10.37,2015-07-04 08:05:00,
2015-07-04 04:10:00,66.2,65.3,29.88,WSW,253,5.0,5.0,97,0.01,,,0.99,WeatherDisplay:10.37,2015-07-04 08:10:00,
2015-07-04 04:15:00,66.2,65.3,29.88,WSW,252,3.0,10.0,97,0.00,,,0.99,WeatherDisplay:10.37,2015-07-04 08:15:00,
2015-07-04 04:20:00,66.3,65.4,29.88,WSW,249,2.0,10.0,97,0.00,,,0.99,WeatherDisplay:10.37,2015-07-04 08:20:00,
2015-07-04 04:25:00,66.3,65.4,29.89,WSW,248,5.0,5.0,97,0.00,,,0.99,WeatherDisplay:10.37,2015-07-04 08:25:00,
2015-07-04 04:30:00,66.3,65.4,29.89,WSW,255,5.0,8.0,97,0.00,,,0.99,WeatherDisplay:10.37,2015-07-04 08:30:00,
2015-07-04 04:35:00,66.3,65.4,29.89,WSW,257,2.0,7.0,97,0.00,,,0.99,WeatherDisplay:10.37,2015-07-04 08:35:00,
2015-07-04 04:40:00,66.2,65.3,29.89,WSW,243,3.5,3.5,97,0.00,,,0.99,WeatherDisplay:10.37,2015-07-04 08:40:00,
2015-07-04 04:45:00,66.2,65.3,29.88,WSW,256,3.0,6.0,97,0.00,,,0.99,WeatherDisplay:10.37,2015-07-04 08:45:00,
2015-07-04 04:50:00,66.2,65.3,29.89,WSW,258,4.6,4.6,97,0.00,,,0.99,WeatherDisplay:10.37,2015-07-04 08:50:00,
2015-07-04 04:55:00,66.2,65.3,29.89,WSW,255,5.8,5.8,97,0.00,,,0.99,WeatherDisplay:10.37,2015-07-04 08:55:00,
2015-07-04 05:00:00,66.1,65.2,29.89,WSW,254,3.0,8.0,97,0.00,,,0.99,WeatherDisplay:10.37,2015-07-04 09:00:00,
2015-07-04 05:05:00,66.1,65.2,29.89,WSW,257,3.5,3.5,97,0.00,,,0.99,WeatherDisplay:10.37,2015-07-04 09:05:00,
2015-07-04 05:10:00,66.1,65.2,29.89,West,271,2.3,2.3,97,0.00,,,0.99,WeatherDisplay:10.37,2015-07-04 09:10:00,
2015-07-04 05:15:00,66.0,65.1,29.90,West,261,1.0,3.0,97,0.00,,,0.99,WeatherDisplay:10.37,2015-07-04 09:15:00,
2015-07-04 05:20:00,66.0,65.1,29.90,West,262,2.3,2.3,97,0.00,,,0.99,WeatherDisplay:10.37,2015-07-04 09:20:00,
2015-07-04 05:25:00,66.0,65.1,29.90,West,267,0.0,5.0,97,0.00,,,0.99,WeatherDisplay:10.37,2015-07-04 09:25:00,
2015-07-04 05:30:00,65.9,65.0,29.90,West,267,1.0,5.0,97,0.00,,,0.99,WeatherDisplay:10.37,2015-07-04 09:30:00,
2015-07-04 05:35:00,65.9,65.0,29.90,WSW,252,3.5,3.5,97,0.00,,,0.99,WeatherDisplay:10.37,2015-07-04 09:35:00,
2015-07-04 05:40:00,65.9,65.0,29.90,SW,236,4.0,4.2,97,0.00,,,0.99,WeatherDisplay:10.37,2015-07-04 09:40:00,
2015-07-04 05:45:00,65.9,65.0,29.90,West,260,2.0,7.0,97,0.00,,,0.99,WeatherDisplay:10.37,2015-07-04 09:45:00,
2015-07-04 05:50:00,65.9,65.0,29.91,West,261,3.5,3.5,97,0.00,,,0.99,WeatherDisplay:10.37,2015-07-04 09:50:00,
2015-07-04 05:55:00,65.9,65.0,29.91,WNW,288,2.3,2.3,97,0.00,,,0.99,WeatherDisplay:10.37,2015-07-04 09:55:00,
2015-07-04 06:00:00,65.9,65.0,29.91,WSW,256,7.0,7.0,97,0.00,,,0.99,WeatherDisplay:10.37,2015-07-04 10:00:00,
2015-07-04 06:05:00,65.5,64.3,29.91,WSW,240,8.1,8.1,96,0.00,CLR,,0.99,WeatherDisplay:10.37,2015-07-04 10:05:00,
2015-07-04 06:10:00,64.9,64.9,29.91,West,260,0.0,4.0,100,0.00,CLR,,0.99,WeatherDisplay:10.37,2015-07-04 10:10:00,
2015-07-04 06:15:00,64.9,64.9,29.91,WSW,255,0.0,0.0,100,0.00,CLR,,0.99,WeatherDisplay:10.37,2015-07-04 10:15:00,
2015-07-04 06:20:00,64.9,64.9,29.91,NW,310,0.0,0.0,100,0.00,CLR,,0.99,WeatherDisplay:10.37,2015-07-04 10:20:00,
2015-07-04 06:25:00,64.9,64.9,29.92,North,2,0.0,0.0,100,0.00,CLR,,0.99,WeatherDisplay:10.37,2015-07-04 10:25:00,
2015-07-04 06:30:00,64.9,64.9,29.92,North,0,0.0,0.0,100,0.00,CLR,,0.99,WeatherDisplay:10.37,2015-07-04 10:30:00,
2015-07-04 06:35:00,64.9,64.9,29.92,North,0,0.0,0.0,100,0.00,CLR,,0.99,WeatherDisplay:10.37,2015-07-04 10:35:00,
2015-07-04 06:40:00,64.9,64.9,29.92,North,0,0.0,0.0,100,0.00,CLR,,0.99,WeatherDisplay:10.37,2015-07-04 10:40:00,
2015-07-04 06:45:00,64.9,64.9,29.92,North,0,0.0,0.0,100,0.00,CLR,,0.99,WeatherDisplay:10.37,2015-07-04 10:45:00,
2015-07-04 06:50:00,64.9,64.9,29.92,North,0,0.0,0.0,100,0.00,CLR,,0.99,WeatherDisplay:10.37,2015-07-04 10:50:00,
2015-07-04 06:55:00,64.9,64.9,29.92,North,0,0.0,0.0,100,0.00,CLR,,0.99,WeatherDisplay:10.37,2015-07-04 10:55:00,
2015-07-04 07:00:00,65.8,64.9,29.92,WSW,252,3.5,3.5,97,0.00,CLR,,0.99,WeatherDisplay:10.37,2015-07-04 11:00:00,
2015-07-04 07:05:00,65.8,65.2,29.93,West,266,2.0,7.0,98,0.00,CLR,,0.99,WeatherDisplay:10.37,2015-07-04 11:05:00,
2015-07-04 07:10:00,65.8,65.2,29.92,WSW,252,4.0,4.0,98,0.00,CLR,,0.99,WeatherDisplay:10.37,2015-07-04 11:10:00,
2015-07-04 07:15:00,65.8,65.2,29.92,West,267,0.0,4.0,98,0.00,CLR,,0.99,WeatherDisplay:10.37,2015-07-04 11:15:00,
2015-07-04 07:20:00,65.8,65.2,29.92,WSW,253,3.0,10.0,98,0.00,CLR,,0.99,WeatherDisplay:10.37,2015-07-04 11:20:00,
2015-07-04 07:25:00,65.9,65.3,29.92,WSW,254,1.0,5.0,98,0.00,CLR,,0.99,WeatherDisplay:10.37,2015-07-04 11:25:00,
2015-07-04 07:30:00,66.0,65.4,29.92,West,260,1.0,4.0,98,0.00,CLR,,0.99,WeatherDisplay:10.37,2015-07-04 11:30:00,
2015-07-04 07:35:00,66.0,65.1,29.92,WSW,256,2.0,7.0,97,0.00,CLR,,0.99,WeatherDisplay:10.37,2015-07-04 11:35:00,
2015-07-04 07:40:00,66.0,65.4,29.92,SW,234,4.6,4.6,98,0.00,CLR,,0.99,WeatherDisplay:10.37,2015-07-04 11:40:00,
2015-07-04 07:45:00,66.1,65.2,29.92,WSW,258,1.0,5.0,97,0.00,CLR,,0.99,WeatherDisplay:10.37,2015-07-04 11:45:00,
2015-07-04 07:50:00,66.1,65.2,29.92,West,259,3.0,6.0,97,0.00,CLR,,0.99,WeatherDisplay:10.37,2015-07-04 11:50:00,
2015-07-04 07:55:00,66.2,65.3,29.93,WSW,256,8.1,8.1,97,0.00,CLR,,0.99,WeatherDisplay:10.37,2015-07-04 11:55:00,
2015-07-04 08:00:00,66.3,65.4,29.93,West,263,1.2,1.2,97,0.00,CLR,,0.99,WeatherDisplay:10.37,2015-07-04 12:00:00,
2015-07-04 08:05:00,66.4,65.5,29.93,SW,231,6.0,6.0,97,0.00,CLR,,0.99,WeatherDisplay:10.37,2015-07-04 12:05:00,
2015-07-04 08:10:00,66.4,65.5,29.93,West,260,3.5,3.5,97,0.00,CLR,,0.99,WeatherDisplay:10.37,2015-07-04 12:10:00,
2015-07-04 08:15:00,66.5,65.6,29.93,WSW,255,1.0,6.0,97,0.00,CLR,,0.99,WeatherDisplay:10.37,2015-07-04 12:15:00,
2015-07-04 08:20:00,66.6,65.7,29.94,WSW,253,2.3,2.3,97,0.00,CLR,,0.99,WeatherDisplay:10.37,2015-07-04 12:20:00,
2015-07-04 08:25:00,66.6,65.7,29.94,WSW,248,3.5,3.5,97,0.00,CLR,,0.99,WeatherDisplay:10.37,2015-07-04 12:25:00,
2015-07-04 08:30:00,66.6,65.7,29.94,West,262,2.0,5.0,97,0.00,CLR,,0.99,WeatherDisplay:10.37,2015-07-04 12:30:00,
2015-07-04 08:35:00,66.6,65.7,29.94,WNW,287,3.5,3.5,97,0.00,CLR,,0.99,WeatherDisplay:10.37,2015-07-04 12:35:00,
2015-07-04 08:40:00,66.7,65.8,29.94,West,271,1.0,5.0,97,0.00,CLR,,0.99,WeatherDisplay:10.37,2015-07-04 12:40:00,
2015-07-04 08:45:00,66.7,65.8,29.94,West,263,2.0,5.0,97,0.00,CLR,,0.99,WeatherDisplay:10.37,2015-07-04 12:45:00,
2015-07-04 08:50:00,66.8,65.9,29.94,West,260,2.3,2.3,97,0.00,CLR,,0.99,WeatherDisplay:10.37,2015-07-04 12:50:00,
2015-07-04 08:55:00,66.9,66.0,29.94,WSW,254,1.0,9.0,97,0.00,CLR,,0.99,WeatherDisplay:10.37,2015-07-04 12:55:00,
2015-07-04 09:00:00,67.0,65.8,29.94,WSW,248,4.6,4.6,96,0.00,CLR,,0.99,WeatherDisplay:10.37,2015-07-04 13:00:00,
2015-07-04 09:05:00,67.2,66.3,29.94,West,278,3.5,3.5,97,0.00,CLR,,0.99,WeatherDisplay:10.37,2015-07-04 13:05:00,
2015-07-04 09:10:00,67.3,66.4,29.94,West,277,1.0,4.0,97,0.00,CLR,,0.99,WeatherDisplay:10.37,2015-07-04 13:10:00,
2015-07-04 09:15:00,67.4,66.2,29.94,WNW,295,3.5,3.5,96,0.00,CLR,,0.99,WeatherDisplay:10.37,2015-07-04 13:15:00,
2015-07-04 09:20:00,67.4,66.2,29.94,West,269,4.6,4.6,96,0.00,CLR,,0.99,WeatherDisplay:10.37,2015-07-04 13:20:00,
2015-07-04 09:25:00,67.4,66.2,29.95,West,274,1.0,4.0,96,0.00,CLR,,0.99,WeatherDisplay:10.37,2015-07-04 13:25:00,
2015-07-04 09:30:00,67.3,66.1,29.94,WNW,289,3.5,3.5,96,0.00,CLR,,0.99,WeatherDisplay:10.37,2015-07-04 13:30:00,
2015-07-04 09:35:00,67.4,66.2,29.95,WNW,296,3.5,3.5,96,0.00,CLR,,0.99,WeatherDisplay:10.37,2015-07-04 13:35:00,
2015-07-04 09:40:00,67.4,66.2,29.95,West,268,1.0,4.0,96,0.00,CLR,,0.99,WeatherDisplay:10.37,2015-07-04 13:40:00,
2015-07-04 09:45:00,67.4,66.2,29.95,WNW,302,3.5,3.5,96,0.00,CLR,,0.99,WeatherDisplay:10.37,2015-07-04 13:45:00,
2015-07-04 09:50:00,67.4,66.2,29.95,WSW,253,5.8,5.8,96,0.00,CLR,,0.99,WeatherDisplay:10.37,2015-07-04 13:50:00,
2015-07-04 09:55:00,67.6,66.4,29.96,West,262,1.0,6.0,96,0.00,CLR,,0.99,WeatherDisplay:10.37,2015-07-04 13:55:00,
2015-07-04 10:00:00,67.7,66.5,29.95,WNW,283,3.5,3.5,96,0.00,CLR,,0.99,WeatherDisplay:10.37,2015-07-04 14:00:00,
2015-07-04 10:05:00,67.8,66.7,29.95,West,267,1.0,5.0,96,0.00,CLR,,0.99,WeatherDisplay:10.37,2015-07-04 14:05:00,
2015-07-04 10:10:00,67.9,66.7,29.96,WSW,255,3.5,3.5,96,0.00,CLR,,0.99,WeatherDisplay:10.37,2015-07-04 14:10:00,
2015-07-04 10:15:00,68.2,67.0,29.96,WSW,250,2.0,2.0,96,0.00,CLR,,0.99,WeatherDisplay:10.37,2015-07-04 14:15:00,
2015-07-04 10:20:00,68.4,67.2,29.96,West,263,1.0,3.0,96,0.00,CLR,,0.99,WeatherDisplay:10.37,2015-07-04 14:20:00,
2015-07-04 10:25:00,68.5,67.0,29.96,West,264,2.0,9.0,95,0.00,CLR,,0.99,WeatherDisplay:10.37,2015-07-04 14:25:00,
2015-07-04 10:30:00,68.6,67.1,29.96,West,268,1.0,6.0,95,0.00,CLR,,0.99,WeatherDisplay:10.37,2015-07-04 14:30:00,
2015-07-04 10:35:00,68.6,66.8,29.96,West,265,2.0,9.0,94,0.00,CLR,,0.99,WeatherDisplay:10.37,2015-07-04 14:35:00,
2015-07-04 10:40:00,68.6,67.1,29.95,West,271,3.5,3.5,95,0.00,CLR,,0.99,WeatherDisplay:10.37,2015-07-04 14:40:00,
2015-07-04 10:45:00,68.9,67.4,29.96,West,265,2.0,7.0,95,0.00,CLR,,0.99,WeatherDisplay:10.37,2015-07-04 14:45:00,
2015-07-04 10:50:00,69.2,67.4,29.96,WSW,258,2.0,7.0,94,0.00,CLR,,0.99,WeatherDisplay:10.37,2015-07-04 14:50:00,
2015-07-04 10:55:00,69.4,67.3,29.96,WNW,299,5.8,5.8,93,0.00,CLR,,0.99,WeatherDisplay:10.37,2015-07-04 14:55:00,
2015-07-04 11:00:00,69.4,67.0,29.96,West,259,2.0,8.0,92,0.00,CLR,,0.99,WeatherDisplay:10.37,2015-07-04 15:00:00,
2015-07-04 11:05:00,69.5,67.1,29.96,WSW,256,5.0,10.0,92,0.00,CLR,,0.99,WeatherDisplay:10.37,2015-07-04 15:05:00,
2015-07-04 11:10:00,69.7,67.0,29.97,West,278,11.5,11.5,91,0.00,CLR,,0.99,WeatherDisplay:10.37,2015-07-04 15:10:00,
2015-07-04 11:15:00,69.9,67.5,29.97,WSW,251,5.0,10.0,92,0.00,CLR,,0.99,WeatherDisplay:10.37,2015-07-04 15:15:00,
2015-07-04 11:20:00,70.2,67.4,29.97,WNW,302,8.1,8.1,91,0.00,CLR,,0.99,WeatherDisplay:10.37,2015-07-04 15:20:00,
2015-07-04 11:25:00,70.4,68.0,29.97,NW,316,4.6,4.6,92,0.00,CLR,,0.99,WeatherDisplay:10.37,2015-07-04 15:25:00,
2015-07-04 11:30:00,70.5,67.4,29.97,West,264,5.0,12.0,90,0.00,CLR,,0.99,WeatherDisplay:10.37,2015-07-04 15:30:00,
2015-07-04 11:35:00,70.6,67.5,29.97,WNW,299,9.2,9.2,90,0.00,CLR,,0.99,WeatherDisplay:10.37,2015-07-04 15:35:00,
2015-07-04 11:40:00,70.9,68.1,29.97,WNW,296,8.1,8.1,91,0.00,CLR,,0.99,WeatherDisplay:10.37,2015-07-04 15:40:00,
2015-07-04 11:45:00,71.2,68.1,29.97,West,273,5.0,8.0,90,0.00,CLR,,0.99,WeatherDisplay:10.37,2015-07-04 15:45:00,
2015-07-04 11:50:00,71.6,68.2,29.97,West,263,9.0,9.0,89,0.00,CLR,,0.99,WeatherDisplay:10.37,2015-07-04 15:50:00,
2015-07-04 11:55:00,71.4,67.7,29.97,SW,229,10.4,10.4,88,0.00,CLR,,0.99,WeatherDisplay:10.37,2015-07-04 15:55:00,
2015-07-04 12:00:00,71.3,67.9,29.97,WNW,284,1.0,6.0,89,0.00,CLR,,0.99,WeatherDisplay:10.37,2015-07-04 16:00:00,
2015-07-04 12:05:00,71.2,67.5,29.97,West,259,3.5,3.5,88,0.00,CLR,,0.99,WeatherDisplay:10.37,2015-07-04 16:05:00,
2015-07-04 12:10:00,71.7,68.7,29.97,WSW,254,2.0,6.0,90,0.00,CLR,,0.99,WeatherDisplay:10.37,2015-07-04 16:10:00,
2015-07-04 12:15:00,73.1,69.0,29.97,SW,235,6.0,6.0,87,0.00,CLR,,0.99,WeatherDisplay:10.37,2015-07-04 16:15:00,
2015-07-04 12:20:00,74.1,69.6,29.97,SW,236,3.5,3.9,86,0.00,CLR,,0.99,WeatherDisplay:10.37,2015-07-04 16:20:00,
2015-07-04 12:25:00,74.7,68.8,29.97,WSW,249,3.0,9.0,82,0.00,CLR,,0.99,WeatherDisplay:10.37,2015-07-04 16:25:00,
2015-07-04 12:30:00,74.6,68.7,29.97,West,281,5.8,5.8,82,0.00,CLR,,0.99,WeatherDisplay:10.37,2015-07-04 16:30:00,
2015-07-04 12:35:00,74.0,68.5,29.97,WSW,244,6.9,6.9,83,0.00,CLR,,0.99,WeatherDisplay:10.37,2015-07-04 16:35:00,
2015-07-04 12:40:00,74.0,68.8,29.97,WSW,248,1.0,7.0,84,0.00,CLR,,0.99,WeatherDisplay:10.37,2015-07-04 16:40:00,
2015-07-04 12:45:00,74.4,68.9,29.97,West,267,4.6,4.6,83,0.00,CLR,,0.99,WeatherDisplay:10.37,2015-07-04 16:45:00,
2015-07-04 12:50:00,74.9,69.4,29.97,WSW,253,3.0,8.0,83,0.00,CLR,,0.99,WeatherDisplay:10.37,2015-07-04 16:50:00,
2015-07-04 12:55:00,75.4,70.2,29.97,WSW,244,3.0,10.0,84,0.00,CLR,,0.99,WeatherDisplay:10.37,2015-07-04 16:55:00,
2015-07-04 13:00:00,75.8,69.9,29.97,WSW,242,8.1,8.1,82,0.00,CLR,,0.99,WeatherDisplay:10.37,2015-07-04 17:00:00,